CHUTIAN-2 A (66409 NORAD) Tracking and Keplerian Element Data

This shows tracking and keplerian element data for the satellite.

Feedback or suggestion? Click here.




ElementValue
Catalog66409
NameCHUTIAN-2 A
Epoch Orbit597
Epoch Day354.31663068
Epoch Year2025
RAAN58.9425
Inclination98.2754
Eccentricity0.001418
Argument of Perigee155.6403
Mean Anonmoly204.5465
Mean Motion14.49953117
Decay Rate4.44E-06
L11 66409U 25256A 25354.31663068 .00000444 00000+0 12590-3 0 9998
L22 66409 98.2754 58.9425 0014180 155.6403 204.5465 14.49953117 5974



Live tracking and technical data element details for CHUTIAN-2 A (NORAD 66409). CHUTIAN-2 A can be tracked NOW for your location showing map with azimuth and elevation plus other details from your city location.







IsCatalogInMostPopularTable: catalog: 66409, numindb: 1
Update: records affected: 1



GetName: 66409 CHUTIAN-2 A

Hit Count: updated at: Sat, 11 Apr 2026 21:07:26 GMT